www.pogodaiklimat.ru

Погода и климат >> Архив погоды >> Буркина-Фасо >> Dori


ПОГОДА в Dori

  • Прогноз погоды в Dori
  • Монитор погоды в Dori
  • Климат города

АРХИВ ПОГОДЫ в Dori

Время (UTC), дата Ветер
(напр.,м/с)
 
Видим.   Явления Облачность Т
(С)
Тd
(С)
f
(%)
Тe
(С)
Тes
(С)
Комфортность P
(гПа)
Po
(гПа)
Тmin
(С)
Tmax
(С)
R
(мм)
R24
(мм)
S
(см)
00 10.08 штиль 0 10 км 9/0
[Ci sp]
+27.5 +24.7 85 +39 +39 очень
душно
1012.6 981.7
03 10.08 штиль 0 10 км 9/0
[Ci sp]
+26.5 +25.1 92 +38 +38 очень
душно
1010.8 980.0
06 10.08 штиль 0 10 км 9/0
[Ci sp]
+25.7 +25.0 96 +37 +37 очень
душно
1012.2 981.3 +25.7
09 10.08 штиль 0 10 км 9/3 800 м
[Cu Sc Ci sp]
+29.2 +24.7 77 +42 +51 опасность
перегрева
1013.4 982.5
12 10.08 штиль 0 10 км 9/5 600 м
[Cu Sc Ci sp]
+32.6 +23.9 60 +44 +57 опасность
перегрева
1012.0 981.2
15 10.08 штиль 0 10 км 9/5 600 м
[Cu Sc Ci sp]
+34.0 +22.6 51 +43 +50 опасность
перегрева
1009.9 979.2
18 10.08 штиль 0 10 км 9/1 600 м
[Cu Sc Ci sp]
+31.7 +23.8 63 +43 +43 опасность
перегрева
1010.2 979.4 +34.7
21 10.08 штиль 0 10 км 9/0
[Ci sp]
+29.4 +24.8 76 +42 +42 опасность
перегрева
1011.3 980.4
03 11.08 штиль 0 10 км 9/0
[Ac trans Ci sp]
+26.6 +24.0 86 +37 +37 очень
душно
1010.3 979.6
06 11.08 штиль 0 10 км 9/0
[Ci sp]
+25.8 +24.4 92 +36 +36 очень
душно
1012.0 981.1 +25.8
09 11.08 штиль 0 10 км 9/0
[Ci sp]
+29.4 +23.7 71 +40 +53 опасность
солнечного
удара
1014.0 983.0
12 11.08 Ю 2 10 км 9/0
[Ac trans Ci sp]
+33.2 +23.8 58 +45 +62 опасность
перегрева
1012.6 981.8
15 11.08 Ю 1 10 км 9/0
[Ac trans Ci sp]
+35.6 +23.5 50 +46 +57 опасность
перегрева
1010.6 980.0
18 11.08 Ю 1 10 км 9/0
[Ac trans Ci sp]
+34.0 +23.4 54 +45 +45 опасность
перегрева
1010.5 979.8 +36.0
21 11.08 штиль 0 10 км 9/0
[Ci sp]
+31.4 +24.4 66 +44 +44 опасность
перегрева
1010.1 979.4
00 12.08 штиль 0 10 км 9/0
[Ci sp]
+29.7 +24.5 74 +42 +42 опасность
перегрева
1010.0 979.4
03 12.08 штиль 0 10 км 9/0
[Ci sp]
+28.5 +24.3 78 +40 +40 очень
душно
1010.0 979.5
06 12.08 штиль 0 10 км 9/0
[Ci sp]
+27.2 +24.1 83 +38 +38 очень
душно
1010.8 980.2 +27.0
09 12.08 Ю 1 10 км 9/0
[Ci sp]
+30.4 +24.2 70 +42 +54 опасность
перегрева
1011.8 981.1
12 12.08 Ю 2 10 км 9/3 600 м
[Cu Sc Ci sp]
+34.5 +24.3 55 +47 +59 опасность
перегрева
1011.5 981.0
18 12.08 штиль 0 10 км 9/1 600 м
[Cu Sc Ac trans Ci sp]
+28.1 +25.0 83 +40 +40 очень
душно
1009.8 978.8 +36.2
21 12.08 штиль 0 10 км зарница 9/1 1200 м
[Cb cap Ac trans Ci sp]
+31.5 +19.0 47 +37 +37 очень
душно
1011.1 980.4
00 13.08 штиль 0 10 км гроза, ливневой дождь 9/1 1200 м
[Cb cap Ac As Ci sp]
+23.5 +22.3 93 +31 +31 очень
душно
1013.2 982.2 17
03 13.08 ЮЗ 1 10 км {гроза, дождь} 9/0
[Ac As Ci sp]
+25.8 +18.7 65 +31 +31 очень
душно
1008.2 977.6
06 13.08 штиль 0 10 км {гроза, дождь} 9/0
[Ac trans Ci sp]
+24.8 +20.9 79 +31 +31 очень
душно
1008.7 977.9 +21.3 19
09 13.08 штиль 0 10 км 9/0
[Ac trans Ci sp]
+27.5 +22.4 74 +36 +44 очень
душно
1010.1 979.4
12 13.08 ЮВ 2 10 км 9/0
[Ac trans Ci sp]
+30.2 +22.9 65 +40 +50 очень
душно
1010.7 979.6
15 13.08 Ю 1 10 км 9/0
[Ci sp]
+32.3 +21.7 54 +41 +52 опасность
перегрева
1008.7 977.9
18 13.08 ЮЗ 1 10 км 9/0
[Ci sp]
+31.3 +23.0 61 +41 +41 опасность
перегрева
1008.5 977.6 +33.5
21 13.08 штиль 0 10 км 9/0
[Ci sp]
+28.7 +23.1 72 +39 +39 очень
душно
1009.6 978.7
00 14.08 штиль 0 10 км 9/0
[Ci sp]
+27.4 +23.2 78 +37 +37 очень
душно
1009.1 978.3
03 14.08 штиль 0 10 км 9/0
[Ci sp]
+26.3 +23.0 82 +35 +35 очень
душно
1008.7 978.0
06 14.08 штиль 0 10 км 9/0
[Ac trans Ci sp]
+25.5 +23.2 87 +34 +34 очень
душно
1008.9 978.1 +25.5
09 14.08 В 2 10 км 9/0
[Ci sp]
+27.3 +21.7 72 +35 +45 очень
душно
1012.4 981.4
12 14.08 ЮВ 2 10 км 9/0
[Ac trans Ci sp]
+30.5 +22.6 63 +40 +55 опасность
солнечного
удара
1010.6 979.7
15 14.08 Ю 1 10 км 9/0
[Ac trans Ci sp]
+31.2 +23.9 65 +43 +49 опасность
перегрева
1009.8 979.0
21 14.08 штиль 0 10 км 9/0
[Ac trans Ci sp]
+29.0 +26.1 84 +44 +44 опасность
перегрева
1010.1 979.2
03 15.08 штиль 0 10 км 9/0
[Ac trans Ci sp]
+27.0 +24.3 85 +38 +38 очень
душно
1010.1 979.3
09 15.08 ЮВ 1 10 км 9/0
[Ac trans Ci sp]
+27.8 +22.4 72 +36 +45 очень
душно
1012.9 981.9
15 15.08 ЮВ 2 10 км 9/0
[Ci sp]
+33.7 +21.0 47 +41 +50 опасность
перегрева
1009.8 979.1
21 15.08 штиль 0 10 км 9/0
[Ci sp]
+29.7 +23.7 70 +41 +41 опасность
перегрева
1011.6 980.7
03 16.08 ЮЗ 1 10 км 9/0
[Ci sp]
+27.2 +22.4 75 +36 +36 очень
душно
1011.0 980.3
06 16.08 ЮЗ 1 10 км 9/0
[Ac trans Ci sp]
+26.3 +22.7 81 +35 +35 очень
душно
1010.9 980.1 +26.3
09 16.08 ЮЗ 2 10 км 9/0
[Ci sp]
+29.2 +22.9 69 +39 +48 очень
душно
1011.9 981.1
12 16.08 ЮЗ 3 10 км 9/0
[Ci sp]
+33.7 +22.9 53 +44 +58 опасность
перегрева
1010.7 980.1
15 16.08 З 3 10 км 9/0
[Ci sp]
+35.0 +22.6 49 +45 +52 опасность
перегрева
1008.4 977.9
18 16.08 З 2 10 км 9/0
[Ci sp]
+33.7 +24.0 57 +46 +46 опасность
перегрева
1008.0 977.4 +35.6
21 16.08 штиль 0 10 км 9/0
[Ci sp]
+32.2 +24.0 62 +44 +44 опасность
перегрева
1008.6 977.9

 

Местоположение метеостанции Dori (Буркина-Фасо): широта 14.03 долгота -0.03 высота над уровнем моря 277 м.

В архиве по умолчанию представлена погода в Dori за последнюю неделю. Архивные данные за месяц целиком и за предыдущие месяцы, начиная с января 2011 года, Вы можете получить, выбрав интересующий диапазон дат из раскрывающегося списка и нажав кнопку "Ввод!".

Внимание! Время в таблицах - всемирное. Для получения местного времени необходимо прибавить поправку, которая в Dori равна 0 ч.

Смотрите также архив погоды в соседних городах и на ближайших метеорологических станциях:

Погода в Tillabery (Нигер) (161 км)
Погода в Fada N`Gourma (Буркина-Фасо) (227 км)
Погода в Niamey-Aero (Нигер) (245 км)
Погода в Ouagadougou (Буркина-Фасо) (247 км)
Погода в Ouahigouya (Буркина-Фасо) (263 км)
Погода в Po (Буркина-Фасо) (343 км)
Погода в Dapaon (Того) (354 км)
Погода в Navrongo (Гана) (367 км)
Погода в Dosso (Нигер) (367 км)
Погода в Boromo (Буркина-Фасо) (404 км)

Пояснения к столбцам:

Ветер - указаны скорость ветра в м/с - средняя за 10 мин, порывы в срок и между сроками (в фигурных скобках) и направление, откуда дует ветер: С - северный, СВ - северо-восточный, В - восточный, ЮВ - юго-восточный, Ю - южный, ЮЗ - юго-западный, З - западный, СЗ - северо-западный.
Видимость - горизонтальная дальность видимости в метрах или километрах. При видимости от 1 до 10 км при отсутствии осадков обычно наблюдается дымка, при ухудшении видимости до 1 км и менее - туман. В сухую погоду видимость может ухудшаться дымом, пылью или мглою.
Явления - указаны атмосферные явления, наблюдавшиеся в срок или в последний час перед сроком; фигурными скобками обозначены явления, наблюдавшиеся между сроками (за 1-3 часа до срока); квадратными скобками обозначены град или гололедные отложения с указанием их диаметра в мм.
Облачность - указаны через наклонную черту общая и нижняя облачность в баллах и высота нижней границы облаков в метрах; квадратными скобками обозначены формы облаков: Ci - перистые, Cs - перисто-слоистые, Cc - перисто-кучевые, Ac - высококучевые, As - высокослоистые, Sc - слоисто-кучевые, Ns - слоисто-дождевые, Cu - кучевые, Cb - кучево-дождевые. Подробнее классификацию облаков см. в Атласе облаков (PDF).
T - Температура воздуха - температура, измеренная на высоте 2 м над землей.
Td - Температура точки росы - температура, при понижении до которой содержащийся в воздухе водяной пар достигнет насыщения.
f - Относительная влажность воздуха - влажноcть воздуха, измеренная на высоте 2 м над землей.
Te - Эффективная температура - температура, которую ощущает одетый по сезону человек в тени. Характеристика душности погоды. При расчете учитывается влияние влажности воздуха и скорости ветра на теплоощущения человека.
Tes - Эффективная температура на солнце - температура, которую ощущает человек, с поправкой на солнечный нагрев. Характеристика знойности погоды. Зависит от высоты солнца над горизонтом, облачности и скорости ветра. Ночью, в пасмурную погоду, а также при ветре 12 м/с и более поправка равна нулю.
P - Атмосферное давление - приведенное к уровню моря атмосферное давление.
Po - Атмосферное давление - измеренное на уровне метеостанции атмосферное давление.
Tmin - Минимальная температура - минимум температуры воздуха на высоте 2 м над землей.
Tmax - Максимальная температура - максимум температуры воздуха на высоте 2 м над землей.
R - Количество осадков - Количество выпавших осадков за период времени, мм. При наведении курсора мыши на число - период времени, за который выпало указанное количество осадков.
R24 - Количество осадков - Количество выпавших осадков за 24 часа, мм.
S - Снежный покров - Высота снежного покрова, см. При наведении курсора мыши на число - состояние снежного покрова и степень покрытия местности в баллах.